Meteo Giornale » Osservazioni meteo Stati Uniti (USA) » Asheboro
ore: 19:35 - Osservazioni Meteo Asheboro
Lat. 35° 39' N Lon. 79° 53' W Alt. 205 metri s.l.m.
26 °C
Sereno
Temp. 24 Ore
19 °C
31 °C
Nord
0 Km/h
Dew point 23 °C
Umidità 83 %
Visibilità 10 Km
Il sole sorge alle ore 06:51
Il sole tramonta alle ore 19:47
| Data e Ora | Cielo e Fenomeni | T °C | DP °C | Um. % | Pres. hPa | Vis. km | Vento km/h | |
|---|---|---|---|---|---|---|---|---|
| Ieri h: 19:35 | Sereno | 26 | 23 | 83 | 1019 | 10 | N 0 | |
| Ieri h: 19:15 | Sereno | 28 | 22 | 69 | 1019 | 10 | N 0 | |
| Ieri h: 18:55 | Sereno | 28 | 22 | 69 | 1019 | 10 | N 0 | |
| Ieri h: 18:35 | Sereno | 27 | 23 | 78 | 1019 | 10 | N 0 | |
| Ieri h: 18:15 | Sereno | 27 | 22 | 74 | 1019 | 10 | N 0 | |
| Ieri h: 17:55 | Nuvoloso | 27 | 22 | 74 | 1019 | 10 | N 0 | |
| Ieri h: 17:35 | Nuvoloso | 28 | 21 | 65 | 1020 | 10 | N 0 | |
| Ieri h: 17:15 | Nuvoloso | 29 | 22 | 66 | 1019 | 10 | N 7.4 | |
| Ieri h: 16:55 | Nuvoloso | 30 | 21 | 58 | 1019 | 10 | N 0 | |
| Ieri h: 16:35 | Nuvoloso | 30 | 21 | 58 | 1019 | 10 | N 0 | |
| Ieri h: 16:15 | Sereno | 31 | 19 | 48 | 1019 | 10 | N 0 | |
| Ieri h: 15:55 | Nuvoloso | 31 | 19 | 48 | 1020 | 10 | N 0 | |
| Ieri h: 15:35 | Molto Nuvoloso | 31 | 19 | 48 | 1020 | 10 | N 5.5 | |
| Ieri h: 15:15 | Sereno | 31 | 19 | 48 | 1020 | 10 | N 0 | |
| Ieri h: 14:55 | Sereno | 30 | 20 | 55 | 1020 | 10 | N 0 | |
| Ieri h: 14:35 | Sereno | 30 | 20 | 55 | 1020 | 10 | N 0 | |
| Ieri h: 14:15 | Nuvoloso | 30 | 20 | 55 | 1020 | 10 | N 5.5 | |
| Ieri h: 13:55 | Nuvoloso | 30 | 20 | 55 | 1021 | 10 | S/SE 7.4 | |
| Ieri h: 13:35 | Nuvoloso | 29 | 20 | 58 | 1021 | 10 | N 0 | |
| Ieri h: 13:15 | Sereno | 30 | 20 | 55 | 1021 | 10 | N 5.5 | |
| Ieri h: 12:55 | Sereno | 29 | 21 | 62 | 1021 | 10 | N 0 | |
| Ieri h: 12:35 | Sereno | 29 | 20 | 58 | 1021 | 10 | O 7.4 | |
| Ieri h: 12:15 | Sereno | 28 | 21 | 65 | 1021 | 10 | O/NO 9.3 | |
| Ieri h: 11:55 | Sereno | 27 | 22 | 74 | 1021 | 10 | N/NO 7.4 | |
| Ieri h: 11:35 | Sereno | 27 | 22 | 74 | 1022 | 10 | N 0 | |
| Ieri h: 11:15 | Sereno | 26 | 22 | 78 | 1022 | 10 | N 5.5 | |
| Ieri h: 10:55 | Sereno | 26 | 21 | 73 | 1022 | 10 | O 7.4 | |
| Ieri h: 10:35 | Sereno | 26 | 22 | 78 | 1022 | 10 | O 7.4 | |
| Ieri h: 10:15 | Sereno | 25 | 21 | 78 | 1022 | 10 | O 7.4 | |
| Ieri h: 09:55 | Sereno | 24 | 21 | 83 | 1021 | 10 | N 0 | |
| Ieri h: 09:35 | Sereno | 24 | 21 | 83 | 1021 | 10 | N 0 | |
| Ieri h: 09:15 | Sereno | 23 | 21 | 88 | 1021 | 10 | N 0 | |
| Ieri h: 08:55 | Sereno | 22 | 21 | 94 | 1021 | 10 | N 0 | |
| Ieri h: 08:35 | Sereno | 20 | 20 | 100 | 1021 | 10 | N 0 | |
| Ieri h: 08:15 | Sereno | 19 | 19 | 100 | 1021 | 10 | N 0 | |
| Ieri h: 07:55 | Nuvoloso | 19 | 19 | 100 | 1021 | 11 | N 0 | |



